SCP
-0 -0 -0 0 0 0 0 0 0 0 -0 -0 -0 -0 0 0 0 0 -0 0 0 0 0 0 0 0 0 -0 -0 -0 0 0 0 0 0 0 0 0 0 0 0 0 0 0 0 0 0 0 0 0 0 0 0 0
-0 -0 -0 -0 -0 0 0 -0 -0 -0 -0 -0 -0 0 -0 -0 0 0 -0 -0 -0 -0 0 -0 0 0 0 0 -0 0 0 0 0 0 0 0 -0 0 0 0 0 0 0 0 0 0 0 0 0 0 0 0 0 0
-0 -0 -0 -0 -0 -0 -0 -0 -0 0 -0 -0 -0 0 0 0 -0 -0 0 0 0 -0 -0 -0 0 -0 0 -0 0 0 0 0 0 0 0 0 0 0 0 0 0 0 0 0 0 0 0 0 0 0 0 0 0 0
0 -0 0 -0 -0 -0 -0 -0 0 -0 -0 -0 -0 -0 0 0 0 0 0 0 0 0 0 -0 -0 -0 0 -0 0 0 -0 -0 -0 -0 0 0 0 0 0 0 0 0 0 0 0 0 0 0 0 0 0 0 0 0
0 0 -0 -0 -0 -0 -0 -0 -0 -0 -0 0 0 -0 -0 0 0 -0 0 0 0 0 -0 0 0 0 0 0 0 0 0 0 0 0 0 0 0 0 0 0 0 0 0 0 0 0 0 0 0 0 0 0 0 0
0 -0 -0 -0 -0 0 -0 -0 -0 -0 -0 -0 -0 -0 -0 -0 0 0 0 0 0 0 0 0 0 0 0 0 0 0 0 -0 0 0 0 0 0 0 0 0 0 0 0 0 0 0 0 0 0 0 0 0 0 0
0 -0 -0 -0 0 0 -0 -0 0 0 0 -0 0 -0 -0 0 0 0 0 -0 -0 0 0 0 0 0 0 0 0 0 0 0 0 0 0 0 0 0 0 0 0 0 0 0 -0 -0 0 0 0 0 0 0 0 -0
-0 -0 -0 0 0 0 -0 -0 0 0 0 0 -0 0 -0 -0 0 0 0 -0 0 0 0 0 0 -0 0 0 0 0 0 0 0 0 0 0 0 0 0 0 0 0 0 0 -0 0 0 0 0 0 0 -0 -0 0
-0 -0 -0 0 0 0 -0 0 0 0 0 0 0 0 0 0 0 0 0 0 0 0 -0 -0 -0 0 0 0 0 0 0 0 0 0 0 0 0 0 0 0 0 0 0 -0 -0 -0 0 0 0 0 -0 -0 -0 -0
-0 -0 0 0 0 0 0 0 0 0 0 0 0 0 0 0 0 0 0 0 0 0 0 0 0 0 0 0 0 0 0 0 0 0 0 0 0 0 0 0 0 0 -0 -0 -0 -0 0 0 0 -0 -0 -0 -0 -0
-0 0 0 0 0 0 0 0 0 0 0 0 0 0 0 0 0 0 0 -0 -0 0 0 0 0 0 0 0 0 0 0 0 0 0 0 0 0 0 0 0 0 0 0 0 0 0 0 -0 -0 -0 -0 -0 -0 -0
0 0 0 0 0 0 0 0 0 0 0 0 0 0 0 0 0 0 0 0 0 -0 0 0 0 0 0 0 0 0 0 0 0 0 0 0 0 0 0 0 0 0 0 0 0 -0 -0 -0 -0 -0 -0 -0 -0 -0
0 0 0 0 0 0 0 0 0 0 0 0 0 0 0 0 0 0 0 0 -0 0 0 0 0 0 0 0 0 0 0 0 0 0 0 0 0 0 0 0 0 0 0 0 -0 -0 -0 -0 -0 -0 -0 -0 -0 -0
-0 0 0 0 0 0 0 0 0 0 0 0 0 0 0 0 0 0 0 0 0 0 0 0 0 0 0 0 0 0 0 0 0 0 0 0 0 0 0 0 0 0 0 -0 -0 -0 -0 -0 -0 -0 -0 -0 -0 -0
0 0 0 0 0 0 0 0 0 0 0 0 0 0 0 0 0 0 0 0 0 0 0 0 0 0 0 0 0 0 0 0 -0 0 0 0 0 0 0 0 0 0 0 0 0 0 0 -0 -0 0 0 -0 -0 -0
0 0 0 0 0 0 0 0 0 0 0 0 0 0 0 0 0 0 0 0 0 0 0 0 0 0 0 0 0 0 0 -0 0 0 0 0 0 0 0 0 0 0 0 0 0 0 0 0 0 0 0 0 0 -0
0 0 0 0 0 0 0 0 0 0 0 0 0 0 0 0 0 0 0 0 0 0 0 0 0 0 0 0 0 0 0 0 0 0 0 0 0 0 0 0 0 0 0 0 0 0 0 0 0 0 0 0 0 0
0 0 0 0 0 0 0 0 0 0 0 0 0 0 0 0 0 0 0 0 0 0 0 0 0 0 0 0 0 0 0 0 0 0 0 0 0 0 0 0 0 0 0 0 0 0 0 0 0 0 0 0 0 0
0 0 0 0 0 0 0 0 0 0 0 0 0 0 0 0 0 0 0 0 0 0 0 0 0 0 0 0 0 0 0 0 0 0 0 0 0 0 0 0 0 0 0 0 0 0 0 0 0 0 0 0 0 0
0 0 0 0 0 0 0 0 0 0 0 0 0 0 0 0 0 0 0 0 0 0 0 0 0 0 0 0 0 0 0 0 0 0 0 0 0 0 0 0 0 0 0 0 0 0 0 0 0 0 0 0 0 0
0 0 0 0 0 0 0 0 0 0 0 0 0 0 0 0 0 0 0 0 0 0 0 0 0 0 0 0 0 0 0 0 0 0 0 0 0 0 0 0 0 0 0 0 0 0 0 0 0 0 0 0 0 0
0 0 0 0 0 0 0 0 0 0 0 0 0 0 0 0 0 0 0 0 0 0 0 0 0 0 0 0 0 0 0 0 0 0 0 0 0 0 0 0 0 0 0 0 0 0 0 0 0 0 0 0 0 0
0 0 0 0 0 0 0 0 0 0 0 0 0 0 0 0 0 0 0 0 0 0 0 0 -0 0 0 0 0 0 0 0 0 0 0 0 0 0 0 0 0 0 0 0 0 0 0 0 0 0 0 0 0 0
0 0 0 0 0 0 0 0 0 0 0 0 0 0 0 0 0 -0 -0 0 0 -0 -0 0 0 0 0 0 0 0 0 0 0 0 0 0 0 0 0 0 0 0 0 0 0 0 0 0 0 0 0 0 0 0
0 0 0 0 0 0 0 0 0 0 0 0 0 0 0 0 0 0 0 0 0 0 0 0 0 0 0 0 0 0 0 0 0 0 0 0 0 0 0 0 0 0 0 0 0 0 0 0 0 0 0 0 0 0
0 0 0 0 0 0 0 0 0 0 0 0 0 0 0 0 0 0 0 0 0 0 0 0 0 0 0 0 0 0 0 0 0 0 0 0 0 0 0 0 0 0 0 0 0 0 0 0 0 0 0 0 0 0
0 0 0 0 0 0 0 0 0 0 0 0 0 0 0 0 0 0 0 0 0 0 0 0 0 0 0 0 0 0 0 0 0 0 0 0 0 0 0 0 0 0 0 0 0 0 0 0 0 0 0 0 0 0
0 0 0 0 0 0 0 0 0 0 0 0 0 0 0 0 0 0 0 0 0 0 0 0 0 0 0 0 0 0 0 0 0 0 0 0 0 0 0 0 0 0 0 0 0 0 0 0 0 0 0 0 0 0
0 0 0 0 0 0 0 0 0 0 0 0 0 0 0 0 0 0 0 0 0 0 0 0 0 0 0 0 0 0 0 0 0 0 0 0 0 0 0 0 0 0 0 0 0 0 0 0 0 0 0 0 0 0
0 0 0 0 0 0 0 0 0 0 0 0 0 0 0 0 0 0 0 0 0 0 0 0 0 0 0 0 0 0 0 0 0 0 0 0 0 0 0 0 0 0 0 0 0 0 0 0 0 0 0 0 0 0
0 0 0 0 0 0 0 0 0 0 0 0 0 0 0 0 0 0 0 0 0 0 0 0 0 0 0 0 0 0 0 0 0 0 0 0 0 0 0 0 0 0 0 0 0 0 0 0 0 0 0 0 0 0
0 0 0 0 0 0 0 0 0 0 0 0 0 0 0 0 0 0 0 0 0 0 0 0 0 0 0 0 0 0 0 0 0 0 0 0 0 0 0 0 0 0 0 0 0 0 0 0 0 0 0 0 0 0
0 0 0 0 0 0 0 0 0 0 0 0 0 0 0 0 0 0 0 0 0 0 0 0 0 0 0 0 0 0 0 0 0 0 0 0 0 0 0 0 0 0 0 0 0 0 0 0 0 0 0 0 0 0
Wind_Speed_500mb
36 38 41 44 49 55 58 63 65 77 87 81 83 89 92 97 99 95 97 90 82 33 53 59 62 52 26 45 22 9 6 12 0 14 10 9 8 13 8 11 12 14 13 7 5 7 16 3 0 11 13 24 38 50
40 41 42 46 51 57 59 75 77 72 67 64 56 55 82 105 102 100 80 92 89 58 16 53 75 75 74 65 30 38 16 18 31 6 8 5 7 2 8 8 7 8 12 13 15 10 5 6 3 20 32 52 35 54
37 40 44 49 55 64 73 61 43 40 45 49 51 54 59 57 79 120 113 86 72 64 54 71 52 58 72 56 70 20 28 34 15 5 9 5 6 6 6 9 5 6 9 7 9 5 7 35 40 46 49 54 51 51
40 42 46 52 67 61 37 28 34 40 48 57 61 66 69 69 71 69 115 108 102 33 15 28 57 89 45 68 62 74 49 47 40 11 5 5 5 13 3 6 6 10 14 12 9 16 32 24 45 59 59 49 44 44
37 41 49 58 41 24 23 31 37 37 41 44 55 61 75 81 74 73 66 98 111 76 18 10 31 43 70 65 66 73 76 55 34 11 5 6 4 6 3 1 5 10 12 11 9 33 24 34 54 47 50 53 48 48
34 44 49 17 13 15 21 25 27 7 19 21 27 37 67 74 81 74 18 69 89 68 10 6 20 40 52 52 56 59 72 62 43 16 6 9 9 13 7 7 8 13 14 35 19 36 49 62 43 40 56 51 41 34
36 41 9 12 11 8 10 11 8 14 6 18 23 21 39 59 83 93 23 41 94 69 10 4 4 17 44 53 43 34 46 34 32 15 11 9 5 9 5 6 7 18 30 47 62 64 48 56 36 55 56 50 42 36
34 8 12 16 6 22 24 7 17 16 47 36 26 31 10 66 75 73 23 24 100 37 4 6 3 8 35 15 11 21 11 11 10 13 13 4 12 5 6 7 18 40 56 59 62 48 62 59 62 60 52 50 44 40
3 14 21 13 4 26 29 16 21 27 49 52 48 51 72 56 29 47 55 84 80 20 11 7 8 6 27 12 15 9 10 4 9 3 4 10 3 7 11 31 42 58 37 58 48 50 67 72 68 58 50 44 41 37
15 15 23 12 3 21 29 34 32 29 37 45 33 18 18 40 106 99 64 16 27 12 13 5 13 5 17 12 6 10 11 5 5 3 15 4 2 12 43 41 44 31 66 73 75 54 63 63 62 55 48 38 30 31
20 25 23 13 5 19 20 21 21 37 23 17 15 18 54 61 49 11 8 6 8 3 2 5 7 9 9 5 7 9 6 6 4 5 7 3 4 4 37 43 36 51 65 51 58 75 70 71 66 59 48 37 32 29
28 27 23 16 15 13 16 24 46 32 31 32 35 33 15 5 9 10 4 4 5 8 8 5 13 12 10 4 7 1 5 2 6 10 6 4 3 30 51 47 52 59 52 47 56 64 57 52 46 45 43 38 32 27
29 26 28 14 17 14 16 17 15 14 14 10 8 9 4 3 8 9 10 4 7 8 13 18 10 10 5 6 7 5 7 1 2 6 6 5 22 47 57 59 54 47 43 50 56 53 51 48 43 36 38 35 31 29
29 29 25 12 12 16 17 24 5 5 9 12 9 9 5 5 2 5 3 7 10 34 44 37 10 6 6 6 2 8 2 5 6 5 10 10 41 63 63 60 57 54 52 53 56 55 51 46 41 36 32 31 31 31
26 24 26 18 19 15 10 17 7 3 9 9 9 7 6 4 6 9 27 37 45 49 37 19 12 11 4 7 4 7 6 4 9 8 5 38 57 75 69 65 61 59 57 58 56 52 46 41 40 38 34 32 32 33
31 22 17 13 12 15 14 10 9 14 10 9 15 6 10 15 16 30 36 30 45 37 20 13 6 7 5 7 5 3 10 9 5 3 28 64 72 75 73 69 64 59 59 56 51 46 41 39 38 38 39 35 33 32
13 16 19 25 27 16 6 19 13 15 12 10 8 31 19 19 16 14 21 21 20 16 4 6 8 2 3 5 5 2 1 4 9 27 45 67 82 76 71 66 61 58 55 51 48 43 39 39 39 39 42 42 37 36
16 12 7 3 13 22 44 20 14 17 14 18 8 18 40 38 21 31 24 20 13 7 5 5 8 8 5 3 1 2 11 22 27 42 55 68 71 69 63 58 53 50 49 48 44 44 43 42 38 38 39 42 43 39
14 10 7 12 13 11 13 17 16 10 17 12 22 24 25 36 47 40 31 31 29 21 12 9 10 6 5 5 6 19 21 22 33 41 55 60 61 57 50 45 45 46 44 44 43 42 39 35 34 39 40 42 40 38
11 7 11 15 10 12 13 14 12 15 9 10 23 26 15 17 34 44 40 32 28 14 13 8 6 7 9 13 10 18 23 37 51 54 49 50 50 46 43 43 43 42 41 41 39 38 39 39 39 37 37 37 38 37
15 13 10 20 35 22 14 10 14 10 9 11 14 14 11 24 37 30 30 25 24 13 6 13 17 23 17 15 12 12 24 30 39 47 52 51 45 40 42 41 40 39 40 42 43 43 41 40 38 38 37 35 31 27
19 17 16 21 15 13 16 18 12 9 9 7 12 14 13 9 16 25 17 29 14 17 12 14 17 16 16 17 14 12 16 20 20 25 36 42 50 48 47 44 43 42 42 41 41 39 37 36 34 32 34 34 33 33
12 16 17 19 13 14 7 8 8 8 7 2 5 7 8 9 14 13 11 12 10 18 14 15 13 11 11 13 11 11 10 10 14 15 27 33 34 35 34 39 40 39 39 38 35 31 32 37 34 32 30 37 35 33
14 13 14 12 14 2 5 7 7 7 7 5 5 4 5 6 9 10 6 7 12 19 13 14 19 18 12 10 10 9 7 4 6 9 14 24 28 30 26 32 33 30 26 26 33 33 37 41 36 37 35 36 33 35
9 15 9 8 8 9 9 7 7 6 4 3 6 4 4 3 5 5 4 6 13 14 12 7 6 7 11 6 3 5 3 4 5 6 10 13 20 24 25 27 26 24 27 33 37 37 36 38 37 37 36 33 34 32
11 13 7 2 4 7 5 5 3 7 6 5 1 3 3 6 8 5 4 6 10 12 10 9 7 5 4 6 4 6 12 7 9 8 9 10 16 25 28 33 33 32 32 32 31 36 36 35 36 36 34 33 30 28
7 6 7 9 3 7 7 8 8 9 6 6 5 4 5 7 4 2 5 10 10 9 6 3 2 2 6 6 5 7 5 14 13 12 10 7 6 13 14 12 14 13 23 31 31 30 29 29 33 34 33 35 32 31
6 10 4 10 12 11 6 5 6 3 2 4 11 5 5 6 4 4 6 2 3 6 4 5 4 5 2 1 3 4 6 10 14 14 17 15 16 14 14 14 11 13 17 23 25 26 26 25 25 28 30 32 30 30
6 6 6 8 9 12 9 4 1 6 4 5 7 4 5 8 6 8 6 8 8 13 2 4 4 6 8 7 7 6 5 5 4 9 16 24 25 23 20 21 20 19 20 21 22 21 19 19 24 25 24 25 23 26
9 12 5 6 7 1 1 4 7 10 8 16 21 19 20 19 17 12 9 10 9 7 8 8 5 3 3 4 5 3 4 5 8 11 14 21 25 21 15 17 17 15 17 21 22 25 25 25 27 28 27 26 28 30
12 7 7 7 5 3 15 25 24 19 13 16 19 24 22 18 15 14 11 8 6 7 7 5 3 4 5 5 5 5 6 5 6 6 4 6 8 12 10 13 16 17 19 23 25 27 28 27 30 28 26 24 23 25
12 10 6 4 3 12 14 6 7 9 9 8 9 11 12 9 7 5 14 9 5 3 7 8 6 4 2 5 6 5 6 8 11 12 7 13 10 7 9 8 9 13 15 18 21 21 20 21 22 23 23 23 20 20
1 5 7 7 5 4 4 6 6 7 10 7 8 7 8 7 8 5 11 16 13 12 6 3 4 4 3 2 4 7 11 11 7 5 5 3 6 7 9 9 9 10 12 14 16 16 18 20 22 24 28 26 25 25
Wind_Direction_500mb
249 257 261 263 262 263 265 266 265 263 263 257 250 241 233 230 229 219 223 218 209 216 226 222 221 220 202 211 222 203 175 280 24 189 183 213 233 205 158 180 179 172 156 179 167 200 257 242 143 178 160 95 120 127
257 264 265 266 271 273 271 273 274 269 258 252 245 237 226 224 221 215 216 218 220 221 237 239 237 239 231 229 239 221 222 184 212 147 184 182 202 24 185 209 154 201 179 173 185 210 274 280 192 132 142 130 127 131
259 266 271 274 278 277 281 276 262 258 254 250 245 235 224 215 213 213 212 207 205 213 239 243 246 236 228 231 230 222 228 230 237 239 154 174 213 137 209 236 141 209 168 130 123 200 116 116 112 127 137 133 133 133
263 273 277 280 282 287 268 256 260 262 258 253 246 236 223 220 217 211 206 203 202 202 229 251 243 232 244 222 234 225 239 254 269 265 108 178 192 172 237 290 179 201 149 125 76 103 91 98 121 129 121 122 133 138
270 278 282 287 287 252 251 272 284 265 265 245 246 234 225 216 208 202 206 196 194 182 192 184 214 231 226 227 236 233 232 238 228 192 222 209 223 162 247 84 241 192 173 170 189 172 125 137 133 134 135 146 147 140
279 284 295 277 242 248 282 286 289 299 285 256 256 219 209 208 203 193 160 199 187 176 143 154 205 193 202 209 222 233 219 227 236 206 192 208 227 196 192 202 247 213 214 176 139 151 147 146 148 158 150 147 142 134
286 298 251 211 200 300 308 302 60 5 110 143 100 126 183 192 189 178 186 189 188 179 154 122 180 180 204 211 216 215 216 209 214 177 193 193 213 190 140 213 231 197 161 139 150 144 124 154 148 157 148 144 143 133
299 223 196 179 183 20 27 3 31 61 108 113 109 101 128 180 180 187 191 174 167 185 109 141 162 160 181 143 139 174 129 156 176 171 150 190 167 179 229 160 140 149 143 147 151 162 158 157 152 151 152 149 142 135
237 178 181 177 111 29 19 52 53 64 121 121 87 89 100 100 102 135 148 153 162 160 174 154 158 164 152 128 125 121 127 142 187 209 165 161 158 213 198 153 148 145 148 146 147 147 152 152 153 156 155 153 146 140
150 172 167 126 117 42 19 19 24 48 66 95 87 71 51 96 125 129 127 120 171 178 180 141 140 142 138 137 107 124 144 148 174 189 154 172 212 274 156 158 154 154 153 153 127 131 144 149 160 160 159 155 153 149
155 151 147 98 53 36 2 3 73 84 72 71 68 67 92 106 119 75 101 105 125 142 79 114 129 127 118 111 131 158 161 175 132 183 148 132 140 75 146 149 155 154 154 157 162 159 166 168 167 163 162 160 159 162
159 155 150 115 62 41 40 91 107 77 66 82 106 102 71 67 88 86 69 109 147 162 149 119 114 100 100 125 111 110 119 115 163 144 88 129 202 145 149 146 150 155 155 155 165 163 165 165 165 165 162 163 166 164
163 152 158 110 62 46 100 129 142 35 39 68 90 94 114 330 58 140 163 155 139 154 145 146 114 122 114 87 69 83 79 144 89 51 176 190 152 156 154 152 152 160 162 159 158 158 157 157 161 168 167 167 166 163
151 134 127 106 66 77 101 168 175 20 13 49 50 44 72 358 65 231 161 136 140 131 131 129 95 112 111 59 100 83 264 73 54 167 219 167 163 161 159 158 155 155 156 155 155 157 159 160 161 167 169 166 166 163
141 127 127 94 92 106 126 182 233 293 66 61 42 56 26 350 33 95 104 103 115 133 125 112 77 93 56 94 50 101 57 215 207 220 182 158 161 165 163 163 162 161 162 161 161 162 165 169 167 162 164 163 165 165
127 110 105 81 26 27 81 72 120 84 64 59 41 70 58 78 77 79 92 88 123 128 93 74 91 69 43 116 93 172 158 212 236 184 136 153 162 167 167 167 166 166 166 165 167 169 171 172 171 166 161 165 167 170
120 109 94 76 42 15 133 88 53 52 49 42 29 45 59 56 51 51 78 81 109 124 88 90 67 118 112 75 122 13 242 354 124 125 148 163 168 166 164 163 164 165 167 170 171 173 174 171 171 171 169 168 170 169
132 120 102 324 8 55 61 51 71 56 50 30 62 49 64 61 57 48 59 71 82 78 56 89 107 57 49 83 216 100 76 96 139 150 160 166 163 160 162 163 166 171 173 173 175 174 176 175 177 177 175 173 174 175
137 128 78 35 55 86 57 42 45 75 43 44 34 44 60 52 50 61 78 82 90 87 93 53 56 44 34 17 64 102 128 124 122 142 151 157 162 164 165 168 169 170 172 173 176 178 179 181 181 181 183 184 184 185
96 75 30 25 120 79 69 45 55 70 51 31 31 39 51 23 44 56 65 70 72 58 46 44 39 28 20 40 119 144 149 146 143 137 145 158 167 171 174 174 173 172 173 175 178 180 180 180 183 187 191 191 192 194
94 88 77 78 61 72 79 59 59 66 68 61 21 30 28 33 36 35 35 39 58 40 63 56 54 55 72 90 105 136 152 158 165 167 163 165 173 178 179 180 184 183 187 187 187 187 192 194 191 189 192 196 193 193
47 58 55 50 70 73 69 44 86 79 63 54 32 30 28 17 12 18 30 44 53 37 57 75 73 72 86 86 94 132 156 170 189 195 186 184 179 186 192 192 193 196 198 200 199 201 198 193 192 194 194 190 189 187
41 39 45 36 69 55 65 46 73 53 75 21 58 43 14 20 14 20 65 50 68 42 65 59 66 62 86 87 95 119 143 176 180 189 192 196 203 205 204 203 203 205 205 204 206 208 203 194 196 195 189 191 197 202
41 45 33 38 49 83 72 58 68 76 86 53 62 48 10 7 16 65 69 61 77 50 58 50 41 41 71 107 113 117 134 142 150 162 186 204 208 214 213 209 207 209 217 221 209 203 199 204 202 199 199 202 211 215
61 13 31 10 52 66 48 22 9 62 82 85 77 15 302 20 69 66 83 76 80 70 42 20 22 25 18 39 226 208 189 210 218 218 219 229 228 221 207 203 208 210 212 210 207 206 203 204 208 210 211 217 223 228
68 21 57 273 342 98 177 91 157 156 114 66 108 137 135 79 64 66 52 55 71 62 43 9 347 340 322 335 275 287 229 234 237 239 247 278 239 215 213 207 206 211 209 210 210 208 209 215 219 219 219 224 231 232
58 356 32 28 80 94 70 84 97 89 88 132 167 144 80 76 118 78 99 74 77 32 13 49 30 289 279 287 267 262 264 233 244 249 250 238 228 218 223 231 238 248 226 214 211 215 219 222 224 226 227 228 231 232
57 26 104 347 63 49 105 44 66 86 173 120 133 65 102 139 167 69 50 49 181 60 132 170 123 101 60 265 248 248 221 225 243 253 240 220 206 210 210 206 210 232 226 216 215 212 216 222 228 229 230 230 234 230
54 11 22 41 53 44 44 88 126 54 43 129 99 87 93 79 81 115 97 87 135 187 135 103 187 235 253 267 278 279 262 243 253 269 257 236 225 224 220 218 225 230 218 203 207 215 217 220 230 230 228 231 232 224
21 19 84 65 79 65 11 85 106 137 119 114 111 109 103 105 88 103 113 130 158 139 96 85 89 58 91 46 30 11 269 278 272 266 274 265 247 237 236 227 226 221 207 201 202 201 201 207 213 204 202 207 209 214
344 345 90 74 111 97 122 114 113 105 95 86 109 127 127 133 112 84 83 87 114 147 167 173 127 70 50 44 44 51 36 353 285 261 251 259 238 224 233 236 228 224 225 222 217 215 216 214 209 213 210 210 211 216
0 25 110 98 94 143 133 132 96 114 110 100 104 109 113 113 85 90 25 33 18 300 253 244 234 216 109 79 57 41 1 340 335 342 314 243 229 216 221 216 197 195 206 214 217 219 220 215 215 216 215 212 212 216
352 60 86 104 112 168 145 118 89 83 68 79 94 106 90 93 97 60 1 4 10 12 11 350 210 201 210 253 286 310 322 331 341 2 26 77 164 161 173 175 172 176 186 195 203 212 215 217 221 219 216 215 212 208
Wind_Speed_850mb
36 38 41 44 49 55 58 63 65 77 87 81 83 89 92 97 99 95 97 90 82 33 53 59 62 52 26 45 22 9 6 12 0 14 10 9 8 13 8 11 12 14 13 7 5 7 16 3 0 11 13 24 38 50
40 41 42 46 51 57 59 75 77 72 67 64 56 55 82 105 102 100 80 92 89 58 16 53 75 75 74 65 30 38 16 18 31 6 8 5 7 2 8 8 7 8 12 13 15 10 5 6 3 20 32 52 35 54
37 40 44 49 55 64 73 61 43 40 45 49 51 54 59 57 79 120 113 86 72 64 54 71 52 58 72 56 70 20 28 34 15 5 9 5 6 6 6 9 5 6 9 7 9 5 7 35 40 46 49 54 51 51
40 42 46 52 67 61 37 28 34 40 48 57 61 66 69 69 71 69 115 108 102 33 15 28 57 89 45 68 62 74 49 47 40 11 5 5 5 13 3 6 6 10 14 12 9 16 32 24 45 59 59 49 44 44
37 41 49 58 41 24 23 31 37 37 41 44 55 61 75 81 74 73 66 98 111 76 18 10 31 43 70 65 66 73 76 55 34 11 5 6 4 6 3 1 5 10 12 11 9 33 24 34 54 47 50 53 48 48
34 44 49 17 13 15 21 25 27 7 19 21 27 37 67 74 81 74 18 69 89 68 10 6 20 40 52 52 56 59 72 62 43 16 6 9 9 13 7 7 8 13 14 35 19 36 49 62 43 40 56 51 41 34
36 41 9 12 11 8 10 11 8 14 6 18 23 21 39 59 83 93 23 41 94 69 10 4 4 17 44 53 43 34 46 34 32 15 11 9 5 9 5 6 7 18 30 47 62 64 48 56 36 55 56 50 42 36
34 8 12 16 6 22 24 7 17 16 47 36 26 31 10 66 75 73 23 24 100 37 4 6 3 8 35 15 11 21 11 11 10 13 13 4 12 5 6 7 18 40 56 59 62 48 62 59 62 60 52 50 44 40
3 14 21 13 4 26 29 16 21 27 49 52 48 51 72 56 29 47 55 84 80 20 11 7 8 6 27 12 15 9 10 4 9 3 4 10 3 7 11 31 42 58 37 58 48 50 67 72 68 58 50 44 41 37
15 15 23 12 3 21 29 34 32 29 37 45 33 18 18 40 106 99 64 16 27 12 13 5 13 5 17 12 6 10 11 5 5 3 15 4 2 12 43 41 44 31 66 73 75 54 63 63 62 55 48 38 30 31
20 25 23 13 5 19 20 21 21 37 23 17 15 18 54 61 49 11 8 6 8 3 2 5 7 9 9 5 7 9 6 6 4 5 7 3 4 4 37 43 36 51 65 51 58 75 70 71 66 59 48 37 32 29
28 27 23 16 15 13 16 24 46 32 31 32 35 33 15 5 9 10 4 4 5 8 8 5 13 12 10 4 7 1 5 2 6 10 6 4 3 30 51 47 52 59 52 47 56 64 57 52 46 45 43 38 32 27
29 26 28 14 17 14 16 17 15 14 14 10 8 9 4 3 8 9 10 4 7 8 13 18 10 10 5 6 7 5 7 1 2 6 6 5 22 47 57 59 54 47 43 50 56 53 51 48 43 36 38 35 31 29
29 29 25 12 12 16 17 24 5 5 9 12 9 9 5 5 2 5 3 7 10 34 44 37 10 6 6 6 2 8 2 5 6 5 10 10 41 63 63 60 57 54 52 53 56 55 51 46 41 36 32 31 31 31
26 24 26 18 19 15 10 17 7 3 9 9 9 7 6 4 6 9 27 37 45 49 37 19 12 11 4 7 4 7 6 4 9 8 5 38 57 75 69 65 61 59 57 58 56 52 46 41 40 38 34 32 32 33
31 22 17 13 12 15 14 10 9 14 10 9 15 6 10 15 16 30 36 30 45 37 20 13 6 7 5 7 5 3 10 9 5 3 28 64 72 75 73 69 64 59 59 56 51 46 41 39 38 38 39 35 33 32
13 16 19 25 27 16 6 19 13 15 12 10 8 31 19 19 16 14 21 21 20 16 4 6 8 2 3 5 5 2 1 4 9 27 45 67 82 76 71 66 61 58 55 51 48 43 39 39 39 39 42 42 37 36
16 12 7 3 13 22 44 20 14 17 14 18 8 18 40 38 21 31 24 20 13 7 5 5 8 8 5 3 1 2 11 22 27 42 55 68 71 69 63 58 53 50 49 48 44 44 43 42 38 38 39 42 43 39
14 10 7 12 13 11 13 17 16 10 17 12 22 24 25 36 47 40 31 31 29 21 12 9 10 6 5 5 6 19 21 22 33 41 55 60 61 57 50 45 45 46 44 44 43 42 39 35 34 39 40 42 40 38
11 7 11 15 10 12 13 14 12 15 9 10 23 26 15 17 34 44 40 32 28 14 13 8 6 7 9 13 10 18 23 37 51 54 49 50 50 46 43 43 43 42 41 41 39 38 39 39 39 37 37 37 38 37
15 13 10 20 35 22 14 10 14 10 9 11 14 14 11 24 37 30 30 25 24 13 6 13 17 23 17 15 12 12 24 30 39 47 52 51 45 40 42 41 40 39 40 42 43 43 41 40 38 38 37 35 31 27
19 17 16 21 15 13 16 18 12 9 9 7 12 14 13 9 16 25 17 29 14 17 12 14 17 16 16 17 14 12 16 20 20 25 36 42 50 48 47 44 43 42 42 41 41 39 37 36 34 32 34 34 33 33
12 16 17 19 13 14 7 8 8 8 7 2 5 7 8 9 14 13 11 12 10 18 14 15 13 11 11 13 11 11 10 10 14 15 27 33 34 35 34 39 40 39 39 38 35 31 32 37 34 32 30 37 35 33
14 13 14 12 14 2 5 7 7 7 7 5 5 4 5 6 9 10 6 7 12 19 13 14 19 18 12 10 10 9 7 4 6 9 14 24 28 30 26 32 33 30 26 26 33 33 37 41 36 37 35 36 33 35
9 15 9 8 8 9 9 7 7 6 4 3 6 4 4 3 5 5 4 6 13 14 12 7 6 7 11 6 3 5 3 4 5 6 10 13 20 24 25 27 26 24 27 33 37 37 36 38 37 37 36 33 34 32
11 13 7 2 4 7 5 5 3 7 6 5 1 3 3 6 8 5 4 6 10 12 10 9 7 5 4 6 4 6 12 7 9 8 9 10 16 25 28 33 33 32 32 32 31 36 36 35 36 36 34 33 30 28
7 6 7 9 3 7 7 8 8 9 6 6 5 4 5 7 4 2 5 10 10 9 6 3 2 2 6 6 5 7 5 14 13 12 10 7 6 13 14 12 14 13 23 31 31 30 29 29 33 34 33 35 32 31
6 10 4 10 12 11 6 5 6 3 2 4 11 5 5 6 4 4 6 2 3 6 4 5 4 5 2 1 3 4 6 10 14 14 17 15 16 14 14 14 11 13 17 23 25 26 26 25 25 28 30 32 30 30
6 6 6 8 9 12 9 4 1 6 4 5 7 4 5 8 6 8 6 8 8 13 2 4 4 6 8 7 7 6 5 5 4 9 16 24 25 23 20 21 20 19 20 21 22 21 19 19 24 25 24 25 23 26
9 12 5 6 7 1 1 4 7 10 8 16 21 19 20 19 17 12 9 10 9 7 8 8 5 3 3 4 5 3 4 5 8 11 14 21 25 21 15 17 17 15 17 21 22 25 25 25 27 28 27 26 28 30
12 7 7 7 5 3 15 25 24 19 13 16 19 24 22 18 15 14 11 8 6 7 7 5 3 4 5 5 5 5 6 5 6 6 4 6 8 12 10 13 16 17 19 23 25 27 28 27 30 28 26 24 23 25
12 10 6 4 3 12 14 6 7 9 9 8 9 11 12 9 7 5 14 9 5 3 7 8 6 4 2 5 6 5 6 8 11 12 7 13 10 7 9 8 9 13 15 18 21 21 20 21 22 23 23 23 20 20
1 5 7 7 5 4 4 6 6 7 10 7 8 7 8 7 8 5 11 16 13 12 6 3 4 4 3 2 4 7 11 11 7 5 5 3 6 7 9 9 9 10 12 14 16 16 18 20 22 24 28 26 25 25
Wind_Direction_850mb
249 257 261 263 262 263 265 266 265 263 263 257 250 241 233 230 229 219 223 218 209 216 226 222 221 220 202 211 222 203 175 280 24 189 183 213 233 205 158 180 179 172 156 179 167 200 257 242 143 178 160 95 120 127
257 264 265 266 271 273 271 273 274 269 258 252 245 237 226 224 221 215 216 218 220 221 237 239 237 239 231 229 239 221 222 184 212 147 184 182 202 24 185 209 154 201 179 173 185 210 274 280 192 132 142 130 127 131
259 266 271 274 278 277 281 276 262 258 254 250 245 235 224 215 213 213 212 207 205 213 239 243 246 236 228 231 230 222 228 230 237 239 154 174 213 137 209 236 141 209 168 130 123 200 116 116 112 127 137 133 133 133
263 273 277 280 282 287 268 256 260 262 258 253 246 236 223 220 217 211 206 203 202 202 229 251 243 232 244 222 234 225 239 254 269 265 108 178 192 172 237 290 179 201 149 125 76 103 91 98 121 129 121 122 133 138
270 278 282 287 287 252 251 272 284 265 265 245 246 234 225 216 208 202 206 196 194 182 192 184 214 231 226 227 236 233 232 238 228 192 222 209 223 162 247 84 241 192 173 170 189 172 125 137 133 134 135 146 147 140
279 284 295 277 242 248 282 286 289 299 285 256 256 219 209 208 203 193 160 199 187 176 143 154 205 193 202 209 222 233 219 227 236 206 192 208 227 196 192 202 247 213 214 176 139 151 147 146 148 158 150 147 142 134
286 298 251 211 200 300 308 302 60 5 110 143 100 126 183 192 189 178 186 189 188 179 154 122 180 180 204 211 216 215 216 209 214 177 193 193 213 190 140 213 231 197 161 139 150 144 124 154 148 157 148 144 143 133
299 223 196 179 183 20 27 3 31 61 108 113 109 101 128 180 180 187 191 174 167 185 109 141 162 160 181 143 139 174 129 156 176 171 150 190 167 179 229 160 140 149 143 147 151 162 158 157 152 151 152 149 142 135
237 178 181 177 111 29 19 52 53 64 121 121 87 89 100 100 102 135 148 153 162 160 174 154 158 164 152 128 125 121 127 142 187 209 165 161 158 213 198 153 148 145 148 146 147 147 152 152 153 156 155 153 146 140
150 172 167 126 117 42 19 19 24 48 66 95 87 71 51 96 125 129 127 120 171 178 180 141 140 142 138 137 107 124 144 148 174 189 154 172 212 274 156 158 154 154 153 153 127 131 144 149 160 160 159 155 153 149
155 151 147 98 53 36 2 3 73 84 72 71 68 67 92 106 119 75 101 105 125 142 79 114 129 127 118 111 131 158 161 175 132 183 148 132 140 75 146 149 155 154 154 157 162 159 166 168 167 163 162 160 159 162
159 155 150 115 62 41 40 91 107 77 66 82 106 102 71 67 88 86 69 109 147 162 149 119 114 100 100 125 111 110 119 115 163 144 88 129 202 145 149 146 150 155 155 155 165 163 165 165 165 165 162 163 166 164
163 152 158 110 62 46 100 129 142 35 39 68 90 94 114 330 58 140 163 155 139 154 145 146 114 122 114 87 69 83 79 144 89 51 176 190 152 156 154 152 152 160 162 159 158 158 157 157 161 168 167 167 166 163
151 134 127 106 66 77 101 168 175 20 13 49 50 44 72 358 65 231 161 136 140 131 131 129 95 112 111 59 100 83 264 73 54 167 219 167 163 161 159 158 155 155 156 155 155 157 159 160 161 167 169 166 166 163
141 127 127 94 92 106 126 182 233 293 66 61 42 56 26 350 33 95 104 103 115 133 125 112 77 93 56 94 50 101 57 215 207 220 182 158 161 165 163 163 162 161 162 161 161 162 165 169 167 162 164 163 165 165
127 110 105 81 26 27 81 72 120 84 64 59 41 70 58 78 77 79 92 88 123 128 93 74 91 69 43 116 93 172 158 212 236 184 136 153 162 167 167 167 166 166 166 165 167 169 171 172 171 166 161 165 167 170
120 109 94 76 42 15 133 88 53 52 49 42 29 45 59 56 51 51 78 81 109 124 88 90 67 118 112 75 122 13 242 354 124 125 148 163 168 166 164 163 164 165 167 170 171 173 174 171 171 171 169 168 170 169
132 120 102 324 8 55 61 51 71 56 50 30 62 49 64 61 57 48 59 71 82 78 56 89 107 57 49 83 216 100 76 96 139 150 160 166 163 160 162 163 166 171 173 173 175 174 176 175 177 177 175 173 174 175
137 128 78 35 55 86 57 42 45 75 43 44 34 44 60 52 50 61 78 82 90 87 93 53 56 44 34 17 64 102 128 124 122 142 151 157 162 164 165 168 169 170 172 173 176 178 179 181 181 181 183 184 184 185
96 75 30 25 120 79 69 45 55 70 51 31 31 39 51 23 44 56 65 70 72 58 46 44 39 28 20 40 119 144 149 146 143 137 145 158 167 171 174 174 173 172 173 175 178 180 180 180 183 187 191 191 192 194
94 88 77 78 61 72 79 59 59 66 68 61 21 30 28 33 36 35 35 39 58 40 63 56 54 55 72 90 105 136 152 158 165 167 163 165 173 178 179 180 184 183 187 187 187 187 192 194 191 189 192 196 193 193
47 58 55 50 70 73 69 44 86 79 63 54 32 30 28 17 12 18 30 44 53 37 57 75 73 72 86 86 94 132 156 170 189 195 186 184 179 186 192 192 193 196 198 200 199 201 198 193 192 194 194 190 189 187
41 39 45 36 69 55 65 46 73 53 75 21 58 43 14 20 14 20 65 50 68 42 65 59 66 62 86 87 95 119 143 176 180 189 192 196 203 205 204 203 203 205 205 204 206 208 203 194 196 195 189 191 197 202
41 45 33 38 49 83 72 58 68 76 86 53 62 48 10 7 16 65 69 61 77 50 58 50 41 41 71 107 113 117 134 142 150 162 186 204 208 214 213 209 207 209 217 221 209 203 199 204 202 199 199 202 211 215
61 13 31 10 52 66 48 22 9 62 82 85 77 15 302 20 69 66 83 76 80 70 42 20 22 25 18 39 226 208 189 210 218 218 219 229 228 221 207 203 208 210 212 210 207 206 203 204 208 210 211 217 223 228
68 21 57 273 342 98 177 91 157 156 114 66 108 137 135 79 64 66 52 55 71 62 43 9 347 340 322 335 275 287 229 234 237 239 247 278 239 215 213 207 206 211 209 210 210 208 209 215 219 219 219 224 231 232
58 356 32 28 80 94 70 84 97 89 88 132 167 144 80 76 118 78 99 74 77 32 13 49 30 289 279 287 267 262 264 233 244 249 250 238 228 218 223 231 238 248 226 214 211 215 219 222 224 226 227 228 231 232
57 26 104 347 63 49 105 44 66 86 173 120 133 65 102 139 167 69 50 49 181 60 132 170 123 101 60 265 248 248 221 225 243 253 240 220 206 210 210 206 210 232 226 216 215 212 216 222 228 229 230 230 234 230
54 11 22 41 53 44 44 88 126 54 43 129 99 87 93 79 81 115 97 87 135 187 135 103 187 235 253 267 278 279 262 243 253 269 257 236 225 224 220 218 225 230 218 203 207 215 217 220 230 230 228 231 232 224
21 19 84 65 79 65 11 85 106 137 119 114 111 109 103 105 88 103 113 130 158 139 96 85 89 58 91 46 30 11 269 278 272 266 274 265 247 237 236 227 226 221 207 201 202 201 201 207 213 204 202 207 209 214
344 345 90 74 111 97 122 114 113 105 95 86 109 127 127 133 112 84 83 87 114 147 167 173 127 70 50 44 44 51 36 353 285 261 251 259 238 224 233 236 228 224 225 222 217 215 216 214 209 213 210 210 211 216
0 25 110 98 94 143 133 132 96 114 110 100 104 109 113 113 85 90 25 33 18 300 253 244 234 216 109 79 57 41 1 340 335 342 314 243 229 216 221 216 197 195 206 214 217 219 220 215 215 216 215 212 212 216
352 60 86 104 112 168 145 118 89 83 68 79 94 106 90 93 97 60 1 4 10 12 11 350 210 201 210 253 286 310 322 331 341 2 26 77 164 161 173 175 172 176 186 195 203 212 215 217 221 219 216 215 212 208